Home   Weather   Buxar   Past weeks
Flag for India

Past Weather in Buxar, Bihar, India — Yesterday and Last 2 Weeks

Now
75 °F

Fog.


Feels Like: 74 °F
Forecast: 85 / 74 °F
Wind: No wind

Location: Lucknow / Amausi

Current Time: Oct 20, 2019 at 1:50:24 am

Latest Report: Oct 20, 2019 at 1:00 am


Visibility: 2 mi

Pressure: 29.95 "Hg

Humidity: 94%

Dew Point: 73 °F

Location of BuxarLocation

Past Weather in Buxar — Graph

°F

Buxar Temperature Yesterday

Maximum temperature yesterday: 86 °F (at 10:30 am)
Minimum temperature yesterday: 72 °F (at 6:00 am)
Average temperature yesterday: 79 °F

High & Low Weather Summary for the Past Weeks

 TemperatureHumidityPressure
High93 °F (Oct 13, 2:30 pm)100% (Oct 8, 1:30 am)30.07 "Hg (Oct 8, 1:30 am)
Low70 °F (Oct 13, 6:00 am)38% (Oct 13, 1:30 pm)29.77 "Hg (Oct 5, 3:00 am)
Average80 °F77%29.89 "Hg
* Reported Oct 5 12:30 am — Oct 20 12:30 am, Buxar. Weather by CustomWeather, © 2019

Note: Actual official high and low records may vary slightly from our data, if they occured in-between our weather recording intervals... More about our weather records

Advertising

Buxar Weather History for the Previous 24 Hours

Scroll right to see more
 ConditionsComfort  
Time TempWeatherWind HumidityBarometerVisibility
12:30 am
Sun, Oct 20
75 °FFog.No wind94%29.95 "Hg1 mi
12:00 am75 °FFog.No wind94%29.98 "Hg2 mi
11:30 pm
Sat, Oct 19
77 °FFog.No wind89%29.98 "Hg2 mi
11:00 pm77 °FFog.No wind89%29.98 "Hg2 mi
10:30 pm77 °FFog.No wind89%29.98 "Hg2 mi
9:30 pm77 °FFog.No wind94%29.98 "Hg2 mi
9:00 pm77 °FFog.No wind94%29.98 "Hg2 mi
8:30 pm77 °FFog.No wind94%29.98 "Hg2 mi
8:00 pm77 °FFog.No wind94%29.95 "Hg2 mi
7:30 pm79 °FFog.No wind89%29.95 "Hg2 mi
7:00 pm79 °FFog.No wind100%29.92 "Hg2 mi
6:30 pm79 °FFog.2 mph89%29.92 "Hg2 mi
6:00 pm81 °FFog.No wind79%29.92 "Hg2 mi
5:30 pm82 °FBroken clouds.No wind74%29.92 "Hg2 mi
5:00 pm82 °FBroken clouds.No wind79%29.92 "Hg2 mi
4:30 pm84 °FBroken clouds.2 mph58%29.92 "Hg2 mi
4:00 pm84 °FBroken clouds.3 mph58%29.92 "Hg2 mi
3:30 pm84 °FBroken clouds.5 mph66%29.92 "Hg2 mi
3:00 pm84 °FBroken clouds.6 mph66%29.92 "Hg2 mi
2:30 pm86 °FBroken clouds.2 mph59%29.95 "Hg2 mi
2:00 pm86 °FBroken clouds.2 mph59%29.98 "Hg2 mi
1:30 pm84 °FBroken clouds.3 mph62%29.98 "Hg2 mi
1:00 pm86 °FBroken clouds.5 mph62%29.98 "Hg2 mi
12:30 pm86 °FBroken clouds.3 mph62%30.01 "Hg2 mi
12:00 pm84 °FBroken clouds.5 mph70%30.01 "Hg2 mi
11:30 am86 °FBroken clouds.2 mph62%30.04 "Hg2 mi
11:00 am86 °FBroken clouds.2 mph59%30.04 "Hg2 mi
10:30 am86 °FBroken clouds.2 mph62%30.07 "Hg2 mi
9:30 am82 °FFog.2 mph84%30.07 "Hg1 mi
9:00 am79 °FFog.No wind89%30.07 "Hg1 mi
8:30 am79 °FFog.No wind84%30.04 "Hg1 mi
8:00 am77 °FFog.No wind94%30.04 "Hg1 mi
7:30 am75 °FFog.No wind94%30.01 "Hg1 mi
7:00 am73 °FFog.No wind94%30.01 "Hg1 mi
6:30 am73 °FFog.No wind94%29.98 "Hg1 mi
6:00 am72 °FFog.No wind100%29.98 "Hg1 mi
5:30 am73 °FFog.No wind94%29.95 "Hg1 mi
5:00 am73 °FFog.No wind94%29.95 "Hg1 mi
4:30 am73 °FFog.No wind94%29.95 "Hg1 mi
4:00 am73 °FFog.No wind94%29.92 "Hg1 mi
3:30 am73 °FFog.No wind94%29.92 "Hg1 mi
3:00 am73 °FFog.No wind94%29.92 "Hg1 mi
2:30 am73 °FFog.No wind94%29.95 "Hg1 mi
2:00 am73 °FFog.No wind94%29.95 "Hg1 mi
1:30 am73 °FFog.No wind94%29.95 "Hg1 mi
1:00 am75 °FFog.No wind89%29.95 "Hg1 mi
Weather by CustomWeather, © 2019

See weather overview